Change the Weather History Date:

Thursday, February 9, 2012

  Actual Average Record
Temperature  
Mean Temperature 27 °F -  
Max Temperature 33 °F 32 °F 57 °F (1990)
Min Temperature 21 °F 14 °F -11 °F (1979)
Degree Days  
Heating Degree Days 38    
Moisture  
Dew Point 19 °F    
Average Humidity 72    
Maximum Humidity 85    
Minimum Humidity 56    
Precipitation  
Precipitation 0.00 in - - ()
Sea Level Pressure  
Sea Level Pressure 30.25 in    
Wind  
Wind Speed 11 mph (SW)    
Max Wind Speed 16 mph    
Max Gust Speed 21 mph    
Visibility 10 miles    
Events      
Averages and records for this station are not official NWS values.
T = Trace of Precipitation, MM = Missing Value Source: NWS Daily Summary

Daily Weather History Graph

Daily Weather History Graph

Search for Another Location

Airport or City:

Trip Planner

Search our weather history database for the weather conditions in past years. The results will help you decide how hot, cold, wet, or windy it might be!

Date:

Astronomy

Feb. 09, 2012 Rise Set
Actual Time 7:46 AM EST 6:08 PM EST
Civil Twilight 7:17 AM EST 6:37 PM EST
Nautical Twilight 6:45 AM EST 7:10 PM EST
Astronomical Twilight 6:12 AM EST 7:42 PM EST
Moon 8:39 PM EST (2/9) 8:20 AM EST (2/9)
Length of Visible Light 11h 19m
Length of Day
10h 22m
Waning Gibbous, 96% of the Moon is Illuminated
Feb 9
Waning Gibbous
Feb 14
Last Quarter
Feb 21
New
Feb 29
First Quarter
Mar 8
Full

Hourly Weather History & Observations

Time (EST) Temp. Windchill Dew Point Humidity Pressure Visibility Wind Dir Wind Speed Gust Speed Precip Events Conditions
12:53 AM 25.0 °F 15.5 °F 18.0 °F 75% 30.31 in 10.0 mi West 9.2 mph - N/A   Clear
1:53 AM 24.1 °F 14.4 °F 18.0 °F 77% 30.31 in 10.0 mi WSW 9.2 mph - N/A   Clear
2:53 AM 24.1 °F 13.7 °F 18.0 °F 77% 30.30 in 10.0 mi WSW 10.4 mph - N/A   Clear
3:53 AM 24.1 °F 13.7 °F 18.0 °F 77% 30.30 in 10.0 mi WSW 10.4 mph - N/A   Clear
4:53 AM 23.0 °F 13.9 °F 18.0 °F 81% 30.29 in 10.0 mi SW 8.1 mph - N/A   Clear
5:53 AM 21.9 °F 13.4 °F 18.0 °F 85% 30.29 in 9.0 mi WSW 6.9 mph - N/A   Clear
6:53 AM 21.9 °F 12.5 °F 17.1 °F 82% 30.30 in 9.0 mi SW 8.1 mph - N/A   Clear
7:53 AM 21.0 °F 11.4 °F 17.1 °F 85% 30.30 in 7.0 mi WSW 8.1 mph - N/A   Clear
8:53 AM 23.0 °F 12.4 °F 18.0 °F 81% 30.31 in 8.0 mi SW 10.4 mph - N/A   Clear
9:53 AM 26.1 °F 14.5 °F 19.0 °F 75% 30.31 in 10.0 mi SW 13.8 mph - N/A   Clear
10:53 AM 28.0 °F 16.1 °F 19.0 °F 69% 30.30 in 10.0 mi WSW 16.1 mph - N/A   Clear
11:53 AM 30.9 °F 21.2 °F 19.9 °F 64% 30.30 in 10.0 mi SW 12.7 mph - N/A   Clear
12:53 PM 32.0 °F 21.6 °F 19.9 °F 61% 30.27 in 10.0 mi SW 15.0 mph - N/A   Clear
1:53 PM 32.0 °F 21.2 °F 19.9 °F 61% 30.24 in 10.0 mi SSW 16.1 mph - N/A   Partly Cloudy
2:53 PM 33.1 °F 23.0 °F 19.0 °F 56% 30.22 in 10.0 mi WSW 15.0 mph - N/A   Clear
3:53 PM 33.1 °F 23.9 °F 19.9 °F 59% 30.21 in 10.0 mi SW 12.7 mph 20.7 mph N/A   Clear
4:53 PM 32.0 °F 22.1 °F 19.0 °F 59% 30.19 in 10.0 mi SW 13.8 mph - N/A   Clear
5:53 PM 30.0 °F 19.5 °F 19.9 °F 66% 30.19 in 10.0 mi SSW 13.8 mph - N/A   Clear
6:53 PM 28.0 °F 19.3 °F 19.9 °F 72% 30.19 in 10.0 mi SSW 9.2 mph - N/A   Clear
7:53 PM 28.0 °F 18.1 °F 19.9 °F 72% 30.18 in 10.0 mi SW 11.5 mph - N/A   Clear
8:53 PM 28.0 °F 19.3 °F 19.9 °F 72% 30.18 in 10.0 mi SSW 9.2 mph - N/A   Partly Cloudy
9:53 PM 27.0 °F 19.5 °F 19.9 °F 75% 30.17 in 10.0 mi SSW 6.9 mph - N/A   Clear
10:53 PM 27.0 °F 17.3 °F 19.9 °F 75% 30.17 in 10.0 mi SSW 10.4 mph - N/A   Mostly Cloudy
11:53 PM 27.0 °F 18.0 °F 19.9 °F 75% 30.15 in 10.0 mi SW 9.2 mph - N/A   Partly Cloudy